Overview Statistics Trail Chart Weather Telemetry Raw packets
 

This is the latest recevied weather packets stored in our database for station/object M0HPP-13. If no packets are shown the sender has not sent any weather packets the latest 10 day(s).

<< 5 6 7 8 9 10 11 >>
Time Temp. Humidity Pressure Rain* Wind** Luminosity Snow
1788539286 11.67° C 96% 999.9 hPa 1.02 mm - 120 W/m² -
1788538686 11.67° C 95% 999.8 hPa 1.02 mm - 110 W/m² -
1788538086 12.22° C 95% 999.5 hPa 1.02 mm - 102 W/m² -
1788537486 12.22° C 94% 999.3 hPa 0.76 mm - 93 W/m² -
1788536886 12.78° C 93% 999 hPa 0.25 mm - 194 W/m² -
1788536286 13.33° C 88% 998.9 hPa 0.51 mm - 204 W/m² -
1788535686 13.89° C 85% 998.7 hPa 0.51 mm - 250 W/m² -
1788535086 13.33° C 88% 998.4 hPa 0.51 mm - 276 W/m² -
1788534486 12.78° C 92% 998 hPa 0.25 mm - 171 W/m² -
1788533886 13.33° C 88% 997.8 hPa 0.25 mm - 225 W/m² -
1788533286 14.44° C 80% 997.6 hPa 0 mm - 237 W/m² -
1788532686 13.89° C 80% 997.5 hPa 0 mm - 271 W/m² -
1788532086 13.89° C 79% 997.3 hPa 0 mm - 191 W/m² -
1788531486 14.44° C 78% 997.3 hPa 0 mm - 154 W/m² -
1788530886 14.44° C 79% 997.3 hPa 0 mm - 187 W/m² -
1788530286 14.44° C 77% 997.1 hPa 0 mm - 138 W/m² -
1788529686 14.44° C 78% 997 hPa 0 mm - 205 W/m² -
1788529086 15° C 77% 997 hPa 0 mm - 185 W/m² -
1788528486 15.56° C 77% 996.8 hPa 0 mm - 292 W/m² -
1788527886 15° C 79% 996.7 hPa 0 mm - 358 W/m² -
1788527286 15° C 74% 996.4 hPa 0 mm - 173 W/m² -
1788526686 15° C 76% 996.4 hPa 0 mm - 219 W/m² -
1788526086 16.11° C 74% 996.4 hPa 0 mm - 201 W/m² -
1788525486 15.56° C 78% 996.4 hPa 1.27 mm - 378 W/m² -
1788524886 15° C 82% 996.5 hPa 1.27 mm - 397 W/m² -

* Rain latest hour (hover to see other rain measurements)
** Current wind speed in m/s (hover to see current wind gust speed)